Location: Blue Mountain Vista Observatory
(40.6992°N, 75.9422°W)
Time: 04:35:38
(UTC-04:00)

IDEFIX/ARIANE 42P - Visible Passes

Search period start: 02 August 2014 00:00
Search period end: 12 August 2014 00:00
Orbit: 785 x 805 km, 98.3° (Epoch: 31 July)

Date Brightness Start Highest point End Pass type
(mag) Time Alt. Az. Time Alt. Az. Time Alt. Az.
02 Aug 4.5 21:41:43 10° SSW 21:46:05 27° W 21:50:29 10° NW visible
03 Aug 3.5 21:12:48 10° S 21:17:50 50° W 21:22:52 10° NNW visible
04 Aug 2.6 20:44:28 10° SSE 20:49:41 90° ENE 20:54:54 10° NNW visible
05 Aug 4.9 21:57:50 10° SW 22:01:31 19° W 22:05:12 10° NW visible
06 Aug 4.1 21:28:28 10° SSW 21:33:11 35° W 21:37:56 10° NNW visible
07 Aug 3.0 20:59:50 10° S 21:04:58 65° WSW 21:10:08 10° NNW visible
08 Aug 5.2 22:14:26 10° WSW 22:16:58 14° W 22:19:30 10° WNW visible
09 Aug 4.6 21:44:21 10° SSW 21:48:35 25° W 21:52:50 10° NW visible
10 Aug 3.6 21:15:20 10° S 21:20:18 46° W 21:25:17 10° NNW visible
11 Aug 2.7 20:46:57 10° SSE 20:52:08 85° WSW 20:57:21 10° NNW visible
